[[{"header":{"parameterUnit":"m.s-1","parameterCategory":1,"la1":30.2991,"la2":30.254,"lo1":-89.0895,"lo2":-89.0444,"dy":0.0017,"dx":0.0017,"nx":28,"ny":28,"refTime":"2025-11-27T03:00:00:Z","depth":0,"parameterNumber":2,"parameterNumberName":"U-component_of_WINDS"},"data":[0,0,0,0,0,0,0,0,0,0,0,0,0,0,0,0,0,0,0,0,0,0,0,0,0,0,0,0,0,0,0,0,0,0,0,0,0,0,0,0,0,0,0,0,0,0,0,0,0,0,0,0,0,0,0,0,0,0,-0.0992,-0.0993,0,-0.1066,-0.1067,-0.1068,-0.1066,-0.1065,-0.1064,-0.1063,-0.1143,-0.1146,-0.1149,0,0,0,0,0,0,0,0,0,0,0,0,0,-0.0852,-0.0855,-0.0992,-0.0993,-0.0994,-0.1066,-0.1067,-0.1068,-0.1066,-0.1065,-0.1063,-0.1062,-0.1142,-0.1145,-0.1149,0,0,0,0,0,0,0,0,0,0,0,0,0,-0.0918,-0.0856,-0.0992,-0.1002,-0.1003,-0.1066,-0.1067,-0.1069,-0.1066,-0.1065,-0.1063,-0.1062,-0.1141,-0.1145,-0.115,-0.1209,0,0,-0.1164,-0.1166,0,0,0,0,0,0,0,0,-0.0915,-0.0924,-0.0999,-0.1001,-0.1003,-0.1055,-0.1047,-0.1116,-0.1067,-0.1042,-0.1063,-0.1061,-0.1115,-0.1122,-0.1139,-0.1213,-0.1216,-0.1164,-0.1167,-0.1169,-0.117,0,0,0,0,0,0,0,-0.091,-0.092,-0.1022,-0.1,-0.1003,-0.1003,-0.1011,-0.106,-0.1087,-0.1044,-0.1044,-0.1053,-0.1116,-0.1135,-0.1141,-0.1218,-0.1164,-0.1168,-0.1171,-0.1173,-0.1344,-0.1346,0,0,0,0,0,0,-0.0903,-0.0917,-0.1019,-0.1024,-0.0954,-0.1007,-0.1016,-0.104,-0.1086,-0.1092,-0.1054,-0.1053,-0.1128,-0.1136,-0.1144,-0.1217,-0.1169,-0.1173,-0.1176,-0.1343,-0.1345,-0.1347,0,0,0,0,0,0,-0.09,-0.0912,-0.1016,-0.097,-0.0984,-0.1011,-0.1038,-0.1042,-0.1061,-0.1093,-0.1099,-0.1068,-0.1127,-0.1137,-0.1193,-0.122,-0.1175,-0.118,-0.1341,-0.1343,-0.1346,-0.1365,0,0,0,0,0,0,-0.0896,-0.0911,-0.0933,-0.0971,-0.0986,-0.1063,-0.104,-0.1045,-0.1069,-0.1067,-0.1108,-0.1114,-0.1126,-0.1186,-0.1197,-0.1226,-0.1183,-0.1338,-0.1342,-0.1345,-0.1362,-0.1368,-0.1373,0,0,0,0,0,-0.0891,-0.0937,-0.0935,-0.0947,-0.1014,-0.1065,-0.1074,-0.1086,-0.1071,-0.1094,-0.1115,-0.1112,-0.1215,-0.1192,-0.1205,-0.1235,-0.1337,-0.1341,-0.1345,-0.1359,-0.1366,-0.1372,0,0,0,0,0,0,-0.0904,-0.0942,-0.094,-0.0999,-0.1028,-0.1064,-0.1094,-0.1093,-0.1129,-0.1127,-0.1142,-0.1151,-0.1207,-0.1226,-0.1199,-0.1295,-0.1274,-0.1281,-0.1281,-0.1288,-0.1293,-0.1288,-0.1187,0,0,0,0,0,-0.0913,-0.095,-0.0981,-0.103,-0.1045,-0.1067,-0.1089,-0.1096,-0.1128,-0.1141,-0.1166,-0.1198,-0.1237,-0.1263,-0.1301,-0.1364,-0.1373,-0.1391,-0.1396,-0.14,-0.1407,-0.1442,-0.145,-0.136,-0.136,-0.136,0,0,-0.0934,-0.0959,-0.0981,-0.1033,-0.1057,-0.1096,-0.1078,-0.1119,-0.1149,-0.1148,-0.1202,-0.1221,-0.1258,-0.1317,-0.1344,-0.1335,-0.1433,-0.1405,-0.1409,-0.1413,-0.1447,-0.1455,-0.1463,-0.1363,-0.1362,-0.1362,0,0,-0.0991,-0.1013,-0.1056,-0.108,-0.1115,-0.1129,-0.1139,-0.1175,-0.1188,-0.1241,-0.1241,-0.1277,-0.1344,-0.137,-0.1393,-0.1458,-0.1458,-0.147,-0.1499,-0.1533,-0.154,-0.1547,-0.1571,-0.158,-0.1476,-0.1476,-0.1476,0,-0.1012,-0.107,-0.1079,-0.1121,-0.1144,-0.1143,-0.1188,-0.121,-0.1257,-0.1274,-0.1262,-0.1346,-0.1371,-0.1436,-0.1452,-0.147,-0.1483,-0.1466,-0.1538,-0.1545,-0.1551,-0.1575,-0.1584,-0.1477,-0.1477,-0.1477,-0.1477,0,-0.1095,-0.1134,-0.1165,-0.1209,-0.1235,-0.1278,-0.1295,-0.1321,-0.1325,-0.1341,-0.1396,-0.1424,-0.1469,-0.1484,-0.1489,-0.1551,-0.1544,-0.1535,-0.1514,-0.1561,-0.1583,-0.1592,-0.1479,-0.1479,-0.1478,-0.1478,0,0,-0.1165,-0.1211,-0.1223,-0.1242,-0.128,-0.1312,-0.1355,-0.1396,-0.1419,-0.145,-0.1488,-0.1544,-0.1535,-0.1561,-0.1568,-0.1598,-0.1649,-0.1585,-0.1586,-0.1597,-0.172,-0.1727,-0.1738,-0.1647,-0.1649,-0.1651,-0.1717,0,-0.1227,-0.1302,-0.1312,-0.1379,-0.1416,-0.1415,-0.1452,-0.148,-0.1495,-0.153,-0.1547,-0.1587,-0.1572,-0.1587,-0.1616,-0.1636,-0.1674,-0.1631,-0.1684,-0.1686,-0.1677,-0.1749,-0.1758,-0.1819,-0.1726,-0.1727,-0.1728,0,-0.1311,-0.1343,-0.1414,-0.1446,-0.1462,-0.1496,-0.1535,-0.1567,-0.1599,-0.1608,-0.1635,-0.1638,-0.1684,-0.1659,-0.1723,-0.1694,-0.1716,-0.1729,-0.1731,-0.1739,-0.1712,-0.176,-0.1839,-0.1849,-0.1742,-0.1741,-0.174,0,-0.1357,-0.1418,-0.1468,-0.1485,-0.1523,-0.1547,-0.1565,-0.1595,-0.1619,-0.1652,-0.1669,-0.1707,-0.1729,-0.176,-0.1774,-0.1755,-0.1837,-0.1814,-0.1847,-0.1847,-0.1867,-0.1866,-0.1952,-0.1878,-0.1877,-0.1877,-0.1877,0,-0.1427,-0.147,-0.1489,-0.152,-0.1569,-0.1579,-0.1628,-0.1644,-0.1671,-0.1706,-0.1707,-0.174,-0.1756,-0.1792,-0.1803,-0.1854,-0.1864,-0.1873,-0.1876,-0.1875,-0.1874,-0.1891,-0.1888,-0.188,-0.1879,-0.1879,-0.1878,0,-0.1487,-0.1501,-0.1556,-0.1587,-0.1596,-0.1631,-0.1659,-0.1689,-0.1703,-0.1747,-0.1759,-0.1781,-0.1823,-0.1839,-0.1891,-0.1899,-0.1959,-0.1957,-0.1948,-0.1949,-0.1982,-0.1979,-0.2084,-0.2099,-0.2013,-0.2014,-0.2014,0,-0.1532,-0.1565,-0.16,-0.1622,-0.164,-0.1677,-0.1701,-0.1712,-0.1737,-0.1775,-0.1802,-0.1843,-0.1877,-0.1945,-0.1966,-0.2006,-0.2007,-0.2041,-0.2013,-0.201,-0.2009,-0.2008,-0.2012,-0.2047,-0.2047,-0.2048,-0.2049,0,-0.1611,-0.1615,-0.1649,-0.1686,-0.1714,-0.1744,-0.1772,-0.1791,-0.1806,-0.1835,-0.1877,-0.1903,-0.1955,-0.1997,-0.2037,-0.2057,-0.2056,-0.2057,-0.2067,-0.2067,-0.206,-0.2066,-0.1964,-0.2055,-0.2054,-0.2054,-0.2054,-0.2053,-0.1666,-0.1696,-0.1724,-0.1762,-0.1784,-0.1811,-0.1841,-0.1857,-0.1892,-0.1935,-0.1939,-0.1985,-0.2015,-0.2069,-0.209,-0.2126,-0.2118,-0.2132,-0.2136,-0.214,-0.2143,-0.2052,-0.2134,-0.2133,-0.2133,-0.2133,-0.2133,0,-0.1746,-0.1764,-0.1798,-0.1837,-0.1867,-0.1861,-0.1892,-0.1918,-0.1958,-0.1986,-0.2018,-0.2067,-0.2107,-0.2131,-0.2171,-0.2196,-0.2197,-0.2207,-0.2206,-0.2211,-0.2148,-0.2136,-0.2205,-0.2205,-0.2205,-0.2205,-0.2205,-0.2205,-0.1791,-0.1841,-0.1849,-0.191,-0.1928,-0.1972,-0.199,-0.2015,-0.2037,-0.2091,-0.2123,-0.2138,-0.2164,-0.2206,-0.2243,-0.2249,-0.2265,-0.2276,-0.2281,-0.2223,-0.2215,-0.2208,-0.2197,-0.2278,-0.2279,-0.2342,-0.2342,-0.2343]},{"header":{"parameterUnit":"m.s-1","parameterCategory":1,"la1":30.2991,"la2":30.254,"lo1":-89.0895,"lo2":-89.0444,"dy":0.0017,"dx":0.0017,"nx":28,"ny":28,"refTime":"2025-11-27T03:00:00:Z","depth":0,"parameterNumber":3,"parameterNumberName":"V-component_of_WINDS"},"data":[0,0,0,0,0,0,0,0,0,0,0,0,0,0,0,0,0,0,0,0,0,0,0,0,0,0,0,0,0,0,0,0,0,0,0,0,0,0,0,0,0,0,0,0,0,0,0,0,0,0,0,0,0,0,0,0,0,0,-6.6713,-6.6714,0,-6.6822,-6.6824,-6.6825,-6.6733,-6.6729,-6.6725,-6.6721,-6.6828,-6.6834,-6.684,0,0,0,0,0,0,0,0,0,0,0,0,0,-6.6419,-6.6425,-6.6713,-6.6714,-6.6716,-6.6822,-6.6824,-6.6825,-6.6733,-6.6729,-6.6724,-6.672,-6.6826,-6.6833,-6.6841,0,0,0,0,0,0,0,0,0,0,0,0,0,-6.6539,-6.6427,-6.6713,-6.6683,-6.6681,-6.6822,-6.6824,-6.6826,-6.6734,-6.6728,-6.6723,-6.6717,-6.6823,-6.6832,-6.6842,-6.7016,0,0,-6.6871,-6.6875,0,0,0,0,0,0,0,0,-6.6533,-6.655,-6.6686,-6.6685,-6.6684,-6.6758,-6.6759,-6.6889,-6.6736,-6.6714,-6.6721,-6.6715,-6.6809,-6.6819,-6.6852,-6.7021,-6.7026,-6.6872,-6.6878,-6.6882,-6.6885,0,0,0,0,0,0,0,-6.6524,-6.6545,-6.6756,-6.6688,-6.6687,-6.6662,-6.6673,-6.6783,-6.6792,-6.6715,-6.6709,-6.6723,-6.6807,-6.6843,-6.6854,-6.7027,-6.6872,-6.688,-6.6886,-6.689,-6.7344,-6.735,0,0,0,0,0,0,-6.652,-6.6539,-6.6752,-6.6759,-6.6593,-6.6672,-6.6684,-6.674,-6.6791,-6.6793,-6.6728,-6.6719,-6.683,-6.6843,-6.6857,-6.7065,-6.6882,-6.6891,-6.6897,-6.7338,-6.7346,-6.7353,0,0,0,0,0,0,-6.6514,-6.654,-6.6748,-6.6647,-6.6672,-6.6683,-6.6747,-6.6745,-6.6781,-6.6801,-6.6801,-6.6764,-6.6826,-6.6844,-6.6978,-6.7067,-6.6895,-6.6904,-6.7331,-6.734,-6.7349,-6.7482,0,0,0,0,0,0,-6.6506,-6.6538,-6.6606,-6.665,-6.6678,-6.6869,-6.6752,-6.6751,-6.6799,-6.6787,-6.6834,-6.6836,-6.6823,-6.6964,-6.6987,-6.7078,-6.6912,-6.7323,-6.7335,-6.7346,-6.7469,-6.7495,-6.7516,0,0,0,0,0,-6.6496,-6.6638,-6.661,-6.6636,-6.6763,-6.6874,-6.689,-6.6873,-6.6806,-6.6873,-6.6886,-6.6835,-6.7054,-6.6979,-6.7004,-6.7098,-6.7317,-6.7332,-6.7345,-6.7459,-6.749,-6.7515,0,0,0,0,0,0,-6.6602,-6.6643,-6.6612,-6.6773,-6.6821,-6.6858,-6.6943,-6.6906,-6.6972,-6.6959,-6.6933,-6.6944,-6.7086,-6.7105,-6.702,-6.727,-6.7174,-6.7194,-6.7252,-6.7281,-6.7304,-6.7297,-6.692,0,0,0,0,0,-6.6644,-6.6733,-6.6763,-6.6902,-6.6928,-6.6932,-6.6979,-6.6962,-6.701,-6.7029,-6.7051,-6.7098,-6.7178,-6.723,-6.7304,-6.7471,-6.748,-6.7549,-6.7572,-6.7591,-6.7609,-6.7699,-6.773,-6.7399,-6.7399,-6.7399,0,0,-6.6732,-6.6766,-6.6823,-6.6924,-6.6959,-6.705,-6.6949,-6.7049,-6.7116,-6.7044,-6.7172,-6.719,-6.7241,-6.7393,-6.746,-6.7413,-6.7702,-6.7609,-6.7624,-6.7632,-6.7717,-6.7748,-6.7776,-6.7409,-6.7407,-6.7406,0,0,-6.6939,-6.6974,-6.7093,-6.7131,-6.7187,-6.7188,-6.7217,-6.7261,-6.727,-6.7399,-6.7347,-6.7425,-6.7562,-6.7601,-6.7638,-6.786,-6.7816,-6.7885,-6.8007,-6.8095,-6.8121,-6.8144,-6.8223,-6.8252,-6.7902,-6.7903,-6.7903,0,-6.7041,-6.7178,-6.7159,-6.7264,-6.731,-6.725,-6.7371,-6.7407,-6.7484,-6.7516,-6.7462,-6.7634,-6.7663,-6.7823,-6.7878,-6.791,-6.7941,-6.788,-6.8119,-6.8142,-6.8163,-6.8238,-6.8268,-6.7911,-6.791,-6.7909,-6.7908,0,-6.7301,-6.7397,-6.7486,-6.7564,-6.7619,-6.7731,-6.7728,-6.7786,-6.7764,-6.7771,-6.7902,-6.7936,-6.8016,-6.8053,-6.8031,-6.821,-6.8179,-6.8123,-6.8027,-6.8203,-6.8273,-6.8302,-6.7922,-6.7919,-6.7917,-6.7915,0,0,-6.7578,-6.7644,-6.7677,-6.7712,-6.7769,-6.7842,-6.795,-6.8031,-6.8081,-6.8135,-6.8225,-6.8343,-6.8292,-6.8335,-6.8317,-6.8394,-6.8568,-6.8328,-6.8329,-6.8372,-6.8767,-6.8809,-6.8843,-6.8539,-6.8544,-6.8549,-6.8763,0,-6.7787,-6.7979,-6.7965,-6.8145,-6.8233,-6.8178,-6.8273,-6.8317,-6.8327,-6.8401,-6.841,-6.8494,-6.842,-6.8446,-6.852,-6.8532,-6.8647,-6.8516,-6.8621,-6.8626,-6.8611,-6.888,-6.8925,-6.9126,-6.879,-6.8795,-6.8798,0,-6.8058,-6.8124,-6.8314,-6.8358,-6.8395,-6.848,-6.8553,-6.8625,-6.8674,-6.8675,-6.8724,-6.8693,-6.8801,-6.8703,-6.8851,-6.8762,-6.8804,-6.8816,-6.8823,-6.8833,-6.8723,-6.8897,-6.9189,-6.9219,-6.8841,-6.8838,-6.8835,0,-6.8241,-6.8378,-6.8509,-6.854,-6.8595,-6.8657,-6.8682,-6.8725,-6.8774,-6.8837,-6.8869,-6.8942,-6.8983,-6.904,-6.9029,-6.8959,-6.9181,-6.9081,-6.9184,-6.9184,-6.9233,-6.923,-6.9537,-6.926,-6.926,-6.9259,-6.9259,0,-6.8477,-6.8596,-6.8592,-6.8673,-6.8804,-6.8786,-6.8915,-6.8932,-6.8972,-6.9054,-6.9009,-6.9087,-6.9068,-6.9145,-6.9137,-6.9261,-6.9279,-6.9283,-6.9279,-6.9287,-6.9287,-6.9314,-6.93,-6.9267,-6.9265,-6.9264,-6.9262,0,-6.8704,-6.8707,-6.8847,-6.8888,-6.8901,-6.8996,-6.903,-6.9105,-6.9111,-6.9216,-6.9239,-6.9248,-6.9336,-6.9331,-6.943,-6.9424,-6.9577,-6.9557,-6.9562,-6.9558,-6.9661,-6.9652,-6.9996,-7.004,-6.9735,-6.9738,-6.974,0,-6.8855,-6.8945,-6.8997,-6.905,-6.908,-6.9165,-6.9216,-6.9201,-6.9256,-6.9318,-6.9386,-6.9471,-6.9537,-6.968,-6.9694,-6.9769,-6.9751,-6.9866,-6.9762,-6.9767,-6.9753,-6.9748,-6.9757,-6.9887,-6.989,-6.9893,-6.9895,0,-6.9122,-6.912,-6.9195,-6.9273,-6.9335,-6.9394,-6.9448,-6.9494,-6.9484,-6.9547,-6.9638,-6.969,-6.9792,-6.9876,-6.9948,-6.9972,-6.9933,-6.9928,-6.9956,-6.9965,-6.9965,-6.9967,-6.9618,-6.9921,-6.9918,-6.9916,-6.9915,-6.9914,-6.9316,-6.9394,-6.9443,-6.9529,-6.9569,-6.9621,-6.9694,-6.971,-6.9786,-6.9869,-6.9855,-6.9957,-7.0002,-7.0096,-7.0126,-7.0204,-7.0163,-7.0203,-7.0213,-7.0224,-7.0236,-6.9952,-7.0217,-7.0216,-7.0216,-7.0215,-7.0215,0,-6.9581,-6.961,-6.969,-6.9769,-6.9836,-6.9795,-6.9853,-6.9912,-7.0002,-7.0049,-7.0117,-7.0221,-7.0302,-7.0323,-7.0401,-7.0459,-7.0443,-7.048,-7.0476,-7.0482,-7.0268,-7.0237,-7.0492,-7.0492,-7.0492,-7.0492,-7.0492,-7.0492,-6.9727,-6.9857,-6.986,-7.0009,-7.0036,-7.0137,-7.0174,-7.0221,-7.0259,-7.0378,-7.0446,-7.046,-7.0496,-7.0576,-7.0649,-7.0653,-7.0683,-7.0728,-7.0725,-7.0525,-7.0497,-7.047,-7.0441,-7.0735,-7.0735,-7.0932,-7.0934,-7.0935]}]]